Location: Potomac
(46.8816°N, 113.5795°W)
Time: 03:19:09
(UTC+00:00)

Oscar 19 - Pass Details

Date: 26 June 2022
Orbit: 773 x 790 km, 98.8° (Epoch: 14 August)

Event Time Altitude Azimuth Distance (km) Brightness Sun altitude
Rises 09:48:34 0° 30° (NNE) 3,264 15.9 -13.8°
Reaches altitude 10° 09:51:50 10° 52° (NE) 2,329 14.3 -13.5°
Maximum altitude 09:54:55 16° 89° (E) 1,942 13.1 -13.2°
Drops below altitude 10° 09:57:59 10° 127° (SE) 2,316 13.1 -12.9°
Sets 10:01:12 0° 148° (SSE) 3,237 13.6 -12.6°
